Regional Weather Roundup
Issued by NWS

Home | Current Version | Previous Version | Text Only | Print | Product List | Glossary On
Versions: 1 2 3 4 5 6 7 8 9 10 11 12 13 14 15 16 17 18 19 20 21 22 23 24 25 26 27 28 29 30 31 32 33 34 35 36 37 38 39 40 41 42 43 44 45 46 47 48 49 50
000
ASUS45 KBOI 031110
RWRID

IDAHO REGIONAL WEATHER ROUNDUP
NATIONAL WEATHER SERVICE BOISE ID
500 AM MDT TUE MAY 03 2016

NOTE: "FAIR" INDICATES FEW OR NO CLOUDS BELOW 12000 FEET
WITH NO SIGNIFICANT WEATHER AND/OR OBSTRUCTIONS TO VISIBILITY

IDZ012-014-031200-
SOUTHWEST IDAHO


CITY           SKY/WX    TMP DP  RH WIND       PRES   REMARKS
BOISE          CLEAR     53  31  42 E6        30.10S
CALDWELL       CLEAR     46  35  65 NE3       30.11R
MOUNTAIN HOME  CLEAR     45  32  61 E7        30.12S
$$

IDZ016-017-031200-
SOUTHCENTRAL IDAHO


CITY           SKY/WX    TMP DP  RH WIND       PRES   REMARKS
BURLEY         CLEAR     41  37  86 NE3       30.17R
JEROME         CLEAR     45  34  65 NE13      30.17S
TWIN FALLS     CLEAR     50  30  46 S12       30.16R
$$

IDZ019>023-031200-
SOUTHEAST IDAHO


CITY           SKY/WX    TMP DP  RH WIND       PRES   REMARKS
IDAHO FALLS    CLEAR     36  27  69 CALM      30.22S
POCATELLO      CLEAR     35  31  85 CALM      30.21R
REXBURG        CLEAR     35  28  75 CALM      30.23R
$$

IDZ006-010-011-018-031-032-031200-
CENTRAL IDAHO MOUNTAINS


CITY           SKY/WX    TMP DP  RH WIND       PRES   REMARKS
MCCALL         CLEAR     37  33  85 CALM      30.19S
HAILEY         CLEAR     37  30  75 NW9       30.25R WCI  31
STANLEY          N/A     27  23  85 CALM      30.28S
SALMON         CLEAR     37  28  70 CALM      30.19R
CHALLIS        CLEAR     37  24  59 CALM      30.22R
$$

IDZ002-004-006-007-026-031200-
NORTHERN IDAHO


CITY           SKY/WX    TMP DP  RH WIND       PRES   REMARKS
LEWISTON       CLEAR     53  44  71 SE6       30.05R
LOWELL           N/A     47  43  86 CALM      30.16R
COEUR D`ALENE  CLEAR     46  43  87 E3        30.06S
MULLAN PASS    CLEAR     54  29  38 NW3       30.21R
$$



USA.gov is the U.S. government's official web portal to all federal, state and local government web resources and services.